| time (UTC) | temp F | wind direction | speed MPH | gust MPH | rain 1hr in | rain 24hr in | rain mn in | humidity % | barometer mb |
| 20260831063943 | 87 | 133 | 7.0 | 12.0 | 0.00 | 0.00 | 0.00 | 19 | 1011.8 |
| 20260831063445 | 87 | 140 | 6.0 | 11.0 | 0.00 | 0.00 | 0.00 | 18 | 1011.8 |
| 20260831062946 | 87 | 205 | 7.0 | 12.0 | 0.00 | 0.00 | 0.00 | 18 | 1011.8 |
| 20260831062445 | 88 | 211 | 6.0 | 12.0 | 0.00 | 0.00 | 0.00 | 18 | 1011.8 |
| 20260831061947 | 88 | 171 | 6.0 | 10.0 | 0.00 | 0.00 | 0.00 | 18 | 1011.8 |
| 20260831061449 | 88 | 215 | 6.0 | 9.0 | 0.00 | 0.00 | 0.00 | 18 | 1011.8 |
| 20260831060947 | 88 | 148 | 6.0 | 9.0 | 0.00 | 0.00 | 0.00 | 18 | 1011.8 |
| 20260831060449 | 88 | 212 | 5.0 | 9.0 | 0.00 | 0.00 | 0.00 | 18 | 1011.8 |
| 20260831055951 | 88 | 206 | 4.0 | 11.0 | 0.00 | 0.00 | 0.00 | 18 | 1011.8 |
| 20260831055450 | 88 | 231 | 7.0 | 9.0 | 0.00 | 0.00 | 0.00 | 18 | 1011.8 |
| 20260831054951 | 88 | 222 | 5.0 | 9.0 | 0.00 | 0.00 | 0.00 | 18 | 1011.8 |
| 20260831054453 | 88 | 111 | 4.0 | 8.0 | 0.00 | 0.00 | 0.00 | 18 | 1011.8 |
| 20260831053947 | 88 | 144 | 5.0 | 9.0 | 0.00 | 0.00 | 0.00 | 18 | 1011.8 |
| 20260831053449 | 88 | 138 | 4.0 | 9.0 | 0.00 | 0.00 | 0.00 | 18 | 1011.8 |
| 20260831052951 | 88 | 177 | 6.0 | 9.0 | 0.00 | 0.00 | 0.00 | 17 | 1011.8 |
| 20260831052445 | 89 | 150 | 6.0 | 11.0 | 0.00 | 0.00 | 0.00 | 15 | 1011.8 |
| 20260831051947 | 89 | 196 | 7.0 | 9.0 | 0.00 | 0.00 | 0.00 | 15 | 1011.8 |
| 20260831051449 | 89 | 174 | 6.0 | 9.0 | 0.00 | 0.00 | 0.00 | 15 | 1011.8 |
| 20260831050947 | 89 | 142 | 4.0 | 10.0 | 0.00 | 0.00 | 0.00 | 15 | 1011.8 |
| 20260831050449 | 89 | 145 | 3.0 | 8.0 | 0.00 | 0.00 | 0.00 | 15 | 1011.8 |
| 20260831045951 | 89 | 221 | 6.0 | 11.0 | 0.00 | 0.00 | 0.00 | 15 | 1011.8 |
| 20260831045449 | 89 | 168 | 4.0 | 10.0 | 0.00 | 0.00 | 0.00 | 15 | 1011.8 |
| 20260831044951 | 89 | 216 | 4.0 | 8.0 | 0.00 | 0.00 | 0.00 | 15 | 1011.8 |
| 20260831044453 | 89 | 193 | 4.0 | 8.0 | 0.00 | 0.00 | 0.00 | 15 | 1011.8 |
| 20260831043952 | 89 | 165 | 4.0 | 10.0 | 0.00 | 0.00 | 0.00 | 15 | 1011.8 |
| 20260831043454 | 89 | 195 | 4.0 | 7.0 | 0.00 | 0.00 | 0.00 | 15 | 1011.8 |
| 20260831042956 | 89 | 226 | 4.0 | 8.0 | 0.00 | 0.00 | 0.00 | 15 | 1011.8 |
| 20260831042454 | 89 | 160 | 6.0 | 7.0 | 0.00 | 0.00 | 0.00 | 15 | 1011.8 |
| 20260831041956 | 89 | 186 | 4.0 | 7.0 | 0.00 | 0.00 | 0.00 | 15 | 1011.8 |
| 20260831041458 | 89 | 161 | 4.0 | 6.0 | 0.00 | 0.00 | 0.00 | 15 | 1011.8 |
| 20260831040956 | 89 | 163 | 4.0 | 8.0 | 0.00 | 0.00 | 0.00 | 15 | 1011.8 |
| 20260831040458 | 89 | 196 | 4.0 | 8.0 | 0.00 | 0.00 | 0.00 | 15 | 1011.8 |
| 20260831040000 | 89 | 156 | 5.0 | 9.0 | 0.00 | 0.00 | 0.00 | 15 | 1011.8 |
| 20260831035459 | 89 | 181 | 4.0 | 7.0 | 0.00 | 0.00 | 0.00 | 15 | 1011.8 |
| 20260831035001 | 90 | 140 | 4.0 | 6.0 | 0.00 | 0.00 | 0.00 | 12 | 1011.8 |
| 20260831034503 | 90 | 157 | 4.0 | 6.0 | 0.00 | 0.00 | 0.00 | 12 | 1011.8 |
| 20260831034001 | 90 | 144 | 4.0 | 5.0 | 0.00 | 0.00 | 0.00 | 12 | 1011.8 |
| 20260831033503 | 90 | 204 | 0.0 | 5.0 | 0.00 | 0.00 | 0.00 | 12 | 1011.8 |
| 20260831033005 | 90 | 139 | 5.0 | 7.0 | 0.00 | 0.00 | 0.00 | 12 | 1011.8 |
| 20260831032504 | 90 | 141 | 3.0 | 8.0 | 0.00 | 0.00 | 0.00 | 12 | 1011.8 |
| 20260831032005 | 90 | 145 | 4.0 | 7.0 | 0.00 | 0.00 | 0.00 | 12 | 1011.8 |
| 20260831031507 | 91 | 156 | 4.0 | 6.0 | 0.00 | 0.00 | 0.00 | 12 | 1011.8 |
| 20260831031006 | 91 | 175 | 4.0 | 7.0 | 0.00 | 0.00 | 0.00 | 12 | 1011.8 |
| 20260831030508 | 91 | 144 | 4.0 | 7.0 | 0.00 | 0.00 | 0.00 | 12 | 1011.8 |
| 20260831030010 | 91 | 176 | 4.0 | 7.0 | 0.00 | 0.00 | 0.00 | 12 | 1010.8 |
| 20260831025508 | 92 | 152 | 5.0 | 7.0 | 0.00 | 0.00 | 0.00 | 12 | 1010.8 |
| 20260831025010 | 92 | 167 | 4.0 | 5.0 | 0.00 | 0.00 | 0.00 | 12 | 1010.8 |
| 20260831024512 | 92 | 144 | 3.0 | 5.0 | 0.00 | 0.00 | 0.00 | 12 | 1010.8 |
| 20260831024011 | 92 | 132 | 3.0 | 6.0 | 0.00 | 0.00 | 0.00 | 12 | 1010.8 |
| 20260831023512 | 92 | 144 | 4.0 | 5.0 | 0.00 | 0.00 | 0.00 | 12 | 1010.8 |
| 20260831023014 | 92 | 150 | 4.0 | 6.0 | 0.00 | 0.00 | 0.00 | 11 | 1010.8 |
| 20260831022513 | 92 | 137 | 4.0 | 7.0 | 0.00 | 0.00 | 0.00 | 11 | 1010.8 |
| 20260831022015 | 93 | 148 | 3.0 | 6.0 | 0.00 | 0.00 | 0.00 | 11 | 1010.8 |
| 20260831021517 | 93 | 132 | 4.0 | 7.0 | 0.00 | 0.00 | 0.00 | 11 | 1010.8 |
| 20260831021015 | 93 | 151 | 4.0 | 7.0 | 0.00 | 0.00 | 0.00 | 11 | 1010.8 |
| 20260831020517 | 93 | 165 | 3.0 | 5.0 | 0.00 | 0.00 | 0.00 | 11 | 1010.8 |
| 20260831020017 | 93 | 138 | 3.0 | 6.0 | 0.00 | 0.00 | 0.00 | 11 | 1010.8 |
| 20260831015516 | 93 | 151 | 4.0 | 6.0 | 0.00 | 0.00 | 0.00 | 11 | 1010.8 |
| 20260831015018 | 94 | 163 | 3.0 | 5.0 | 0.00 | 0.00 | 0.00 | 11 | 1010.8 |
| 20260831014520 | 94 | 158 | 4.0 | 5.0 | 0.00 | 0.00 | 0.00 | 11 | 1009.8 |
| 20260831014018 | 94 | 142 | 4.0 | 7.0 | 0.00 | 0.00 | 0.00 | 11 | 1009.8 |
| 20260831013520 | 94 | 188 | 4.0 | 5.0 | 0.00 | 0.00 | 0.00 | 11 | 1009.8 |
| 20260831013022 | 95 | 157 | 4.0 | 5.0 | 0.00 | 0.00 | 0.00 | 11 | 1009.8 |
| 20260831012520 | 95 | 185 | 3.0 | 5.0 | 0.00 | 0.00 | 0.00 | 11 | 1009.8 |
| 20260831012003 | 95 | 200 | 0.0 | 5.0 | 0.00 | 0.00 | 0.00 | 11 | 1009.8 |
| 20260831011505 | 95 | 153 | 0.0 | 7.0 | 0.00 | 0.00 | 0.00 | 11 | 1009.8 |
| 20260831011004 | 95 | 182 | 3.0 | 6.0 | 0.00 | 0.00 | 0.00 | 11 | 1009.8 |
| 20260831010506 | 95 | 150 | 4.0 | 6.0 | 0.00 | 0.00 | 0.00 | 11 | 1009.8 |
| 20260831010003 | 96 | 217 | 5.0 | 8.0 | 0.00 | 0.00 | 0.00 | 11 | 1009.8 |
| 20260831005502 | 96 | 157 | 5.0 | 8.0 | 0.00 | 0.00 | 0.00 | 11 | 1009.8 |
| 20260831005004 | 96 | 144 | 5.0 | 8.0 | 0.00 | 0.00 | 0.00 | 11 | 1009.8 |
| 20260831004501 | 96 | 145 | 4.0 | 9.0 | 0.00 | 0.00 | 0.00 | 11 | 1009.8 |
| 20260831004000 | 97 | 211 | 4.0 | 8.0 | 0.00 | 0.00 | 0.00 | 11 | 1009.8 |
| 20260831003501 | 97 | 216 | 4.0 | 8.0 | 0.00 | 0.00 | 0.00 | 11 | 1009.8 |
| 20260831003003 | 97 | 151 | 7.0 | 9.0 | 0.00 | 0.00 | 0.00 | 11 | 1009.8 |
| 20260831002502 | 97 | 181 | 6.0 | 9.0 | 0.00 | 0.00 | 0.00 | 11 | 1009.8 |
| 20260831002004 | 97 | 150 | 7.0 | 10.0 | 0.00 | 0.00 | 0.00 | 11 | 1009.8 |
| 20260831001506 | 97 | 212 | 6.0 | 8.0 | 0.00 | 0.00 | 0.00 | 11 | 1009.8 |
| 20260831001004 | 97 | 143 | 8.0 | 10.0 | 0.00 | 0.00 | 0.00 | 11 | 1009.8 |
| 20260831000506 | 97 | 187 | 5.0 | 10.0 | 0.00 | 0.00 | 0.00 | 11 | 1009.8 |
| 20260831000008 | 98 | 186 | 5.0 | 11.0 | 0.00 | 0.00 | 0.00 | 10 | 1009.8 |
| 20260830235507 | 97 | 168 | 7.0 | 12.0 | 0.00 | 0.00 | 0.00 | 11 | 1009.8 |
| 20260830235008 | 98 | 118 | 7.0 | 12.0 | 0.00 | 0.00 | 0.00 | 10 | 1009.8 |
| 20260830234510 | 98 | 182 | 6.0 | 10.0 | 0.00 | 0.00 | 0.00 | 10 | 1009.8 |
| 20260830234009 | 98 | 140 | 8.0 | 10.0 | 0.00 | 0.00 | 0.00 | 10 | 1009.8 |
| 20260830233511 | 98 | 205 | 4.0 | 11.0 | 0.00 | 0.00 | 0.00 | 10 | 1009.8 |
| 20260830233013 | 98 | 179 | 6.0 | 11.0 | 0.00 | 0.00 | 0.00 | 10 | 1009.8 |
| 20260830232511 | 98 | 229 | 7.0 | 12.0 | 0.00 | 0.00 | 0.00 | 10 | 1009.8 |
| 20260830232013 | 98 | 141 | 6.0 | 11.0 | 0.00 | 0.00 | 0.00 | 10 | 1009.8 |
| 20260830231515 | 99 | 222 | 6.0 | 10.0 | 0.00 | 0.00 | 0.00 | 10 | 1009.8 |
| 20260830231014 | 99 | 156 | 0.0 | 11.0 | 0.00 | 0.00 | 0.00 | 10 | 1009.8 |
| 20260830230515 | 99 | 136 | 7.0 | 11.0 | 0.00 | 0.00 | 0.00 | 10 | 1009.8 |
| 20260830230017 | 98 | 117 | 10.0 | 14.0 | 0.00 | 0.00 | 0.00 | 10 | 1009.8 |
| 20260830225516 | 98 | 115 | 11.0 | 15.0 | 0.00 | 0.00 | 0.00 | 10 | 1009.8 |
| 20260830225018 | 99 | 140 | 10.0 | 13.0 | 0.00 | 0.00 | 0.00 | 10 | 1009.8 |
| 20260830224520 | 99 | 116 | 7.0 | 11.0 | 0.00 | 0.00 | 0.00 | 10 | 1009.8 |
| 20260830224018 | 98 | 122 | 9.0 | 16.0 | 0.00 | 0.00 | 0.00 | 10 | 1009.8 |
| 20260830223520 | 98 | 138 | 7.0 | 11.0 | 0.00 | 0.00 | 0.00 | 10 | 1009.8 |
| 20260830223022 | 99 | 210 | 7.0 | 12.0 | 0.00 | 0.00 | 0.00 | 10 | 1009.8 |
| 20260830222520 | 99 | 147 | 7.0 | 11.0 | 0.00 | 0.00 | 0.00 | 10 | 1009.8 |
| 20260830222022 | 99 | 172 | 6.0 | 11.0 | 0.00 | 0.00 | 0.00 | 10 | 1009.8 |
| 20260830221524 | 99 | 153 | 7.0 | 16.0 | 0.00 | 0.00 | 0.00 | 10 | 1009.8 |
| 20260830221023 | 99 | 136 | 9.0 | 16.0 | 0.00 | 0.00 | 0.00 | 10 | 1009.8 |
| 20260830220525 | 99 | 112 | 8.0 | 15.0 | 0.00 | 0.00 | 0.00 | 10 | 1009.8 |
| 20260830220022 | 99 | 163 | 8.0 | 14.0 | 0.00 | 0.00 | 0.00 | 10 | 1009.8 |
| 20260830215520 | 100 | 218 | 5.0 | 11.0 | 0.00 | 0.00 | 0.00 | 10 | 1009.8 |
| 20260830215022 | 99 | 146 | 8.0 | 13.0 | 0.00 | 0.00 | 0.00 | 10 | 1009.8 |
| 20260830214524 | 99 | 176 | 7.0 | 12.0 | 0.00 | 0.00 | 0.00 | 10 | 1010.8 |
| 20260830214022 | 99 | 124 | 9.0 | 13.0 | 0.00 | 0.00 | 0.00 | 10 | 1010.8 |
| 20260830213520 | 100 | 216 | 4.0 | 9.0 | 0.00 | 0.00 | 0.00 | 10 | 1010.8 |
| 20260830213022 | 99 | 192 | 8.0 | 12.0 | 0.00 | 0.00 | 0.00 | 10 | 1010.8 |
| 20260830212520 | 99 | 115 | 6.0 | 10.0 | 0.00 | 0.00 | 0.00 | 10 | 1010.8 |
| 20260830212022 | 98 | 119 | 7.0 | 14.0 | 0.00 | 0.00 | 0.00 | 10 | 1010.8 |
| 20260830211524 | 99 | 131 | 8.0 | 14.0 | 0.00 | 0.00 | 0.00 | 10 | 1010.8 |
| 20260830211018 | 99 | 125 | 10.0 | 16.0 | 0.00 | 0.00 | 0.00 | 10 | 1010.8 |
| 20260830210520 | 99 | 144 | 11.0 | 15.0 | 0.00 | 0.00 | 0.00 | 10 | 1010.8 |
| 20260830210022 | 99 | 117 | 5.0 | 12.0 | 0.00 | 0.00 | 0.00 | 10 | 1010.8 |
| 20260830205520 | 100 | 123 | 10.0 | 12.0 | 0.00 | 0.00 | 0.00 | 10 | 1010.8 |
| 20260830205022 | 100 | 111 | 7.0 | 10.0 | 0.00 | 0.00 | 0.00 | 10 | 1010.8 |
| 20260830204524 | 100 | 179 | 0.0 | 12.0 | 0.00 | 0.00 | 0.00 | 10 | 1010.8 |
| 20260830204023 | 99 | 202 | 7.0 | 10.0 | 0.00 | 0.00 | 0.00 | 10 | 1010.8 |
| 20260830203525 | 98 | 112 | 7.0 | 10.0 | 0.00 | 0.00 | 0.00 | 10 | 1010.8 |
| 20260830203026 | 98 | 148 | 10.0 | 15.0 | 0.00 | 0.00 | 0.00 | 10 | 1010.8 |
| 20260830202525 | 98 | 127 | 6.0 | 13.0 | 0.00 | 0.00 | 0.00 | 10 | 1010.8 |
| 20260830202022 | 98 | 127 | 12.0 | 15.0 | 0.00 | 0.00 | 0.00 | 10 | 1010.8 |
| 20260830201524 | 99 | 125 | 10.0 | 14.0 | 0.00 | 0.00 | 0.00 | 10 | 1011.8 |
| 20260830201023 | 97 | 106 | 11.0 | 14.0 | 0.00 | 0.00 | 0.00 | 10 | 1011.8 |
| 20260830200524 | 99 | 233 | 6.0 | 13.0 | 0.00 | 0.00 | 0.00 | 10 | 1011.8 |
| 20260830200026 | 97 | 101 | 7.0 | 11.0 | 0.00 | 0.00 | 0.00 | 10 | 1011.8 |
| 20260830195525 | 99 | 151 | 6.0 | 13.0 | 0.00 | 0.00 | 0.00 | 10 | 1011.8 |
| 20260830195027 | 98 | 229 | 8.0 | 14.0 | 0.00 | 0.00 | 0.00 | 10 | 1011.8 |
| 20260830194528 | 98 | 207 | 3.0 | 14.0 | 0.00 | 0.00 | 0.00 | 10 | 1011.8 |
| 20260830194027 | 98 | 199 | 11.0 | 13.0 | 0.00 | 0.00 | 0.00 | 10 | 1011.8 |
| 20260830193529 | 98 | 166 | 4.0 | 9.0 | 0.00 | 0.00 | 0.00 | 10 | 1011.8 |
| 20260830193031 | 99 | 203 | 4.0 | 13.0 | 0.00 | 0.00 | 0.00 | 10 | 1011.8 |
| 20260830192529 | 99 | 117 | 10.0 | 13.0 | 0.00 | 0.00 | 0.00 | 10 | 1011.8 |
| 20260830192031 | 98 | 249 | 6.0 | 9.0 | 0.00 | 0.00 | 0.00 | 10 | 1011.8 |
| 20260830191533 | 97 | 127 | 5.0 | 13.0 | 0.00 | 0.00 | 0.00 | 11 | 1011.8 |
| 20260830191032 | 97 | 193 | 6.0 | 15.0 | 0.00 | 0.00 | 0.00 | 11 | 1011.8 |
| 20260830190534 | 98 | 215 | 7.0 | 10.0 | 0.00 | 0.00 | 0.00 | 10 | 1011.8 |
| 20260830190035 | 98 | 217 | 5.0 | 12.0 | 0.00 | 0.00 | 0.00 | 10 | 1012.8 |
| 20260830185534 | 98 | 126 | 7.0 | 12.0 | 0.00 | 0.00 | 0.00 | 10 | 1012.8 |
| 20260830185036 | 97 | 118 | 5.0 | 10.0 | 0.00 | 0.00 | 0.00 | 10 | 1012.8 |
| 20260830184538 | 97 | 138 | 4.0 | 12.0 | 0.00 | 0.00 | 0.00 | 11 | 1012.8 |
| 20260830184036 | 96 | 139 | 9.0 | 15.0 | 0.00 | 0.00 | 0.00 | 13 | 1012.8 |
| 20260830183534 | 97 | 148 | 4.0 | 11.0 | 0.00 | 0.00 | 0.00 | 13 | 1012.8 |
| 20260830183036 | 96 | 142 | 9.0 | 11.0 | 0.00 | 0.00 | 0.00 | 13 | 1012.8 |
| 20260830182534 | 97 | 115 | 4.0 | 12.0 | 0.00 | 0.00 | 0.00 | 13 | 1012.8 |
| 20260830182032 | 96 | 129 | 10.0 | 14.0 | 0.00 | 0.00 | 0.00 | 13 | 1012.8 |
| 20260830181529 | 96 | 171 | 6.0 | 12.0 | 0.00 | 0.00 | 0.00 | 13 | 1012.8 |
| 20260830181023 | 96 | 209 | 8.0 | 15.0 | 0.00 | 0.00 | 0.00 | 14 | 1012.8 |
| 20260830180525 | 97 | 171 | 7.0 | 11.0 | 0.00 | 0.00 | 0.00 | 13 | 1012.8 |
| 20260830180026 | 96 | 215 | 8.0 | 12.0 | 0.00 | 0.00 | 0.00 | 13 | 1013.8 |
| 20260830175525 | 96 | 170 | 7.0 | 12.0 | 0.00 | 0.00 | 0.00 | 13 | 1013.8 |
| 20260830175027 | 96 | 84 | 4.0 | 13.0 | 0.00 | 0.00 | 0.00 | 13 | 1013.8 |
| 20260830174529 | 96 | 140 | 10.0 | 11.0 | 0.00 | 0.00 | 0.00 | 13 | 1013.8 |
| 20260830174027 | 96 | 143 | 8.0 | 11.0 | 0.00 | 0.00 | 0.00 | 13 | 1013.8 |
| 20260830173529 | 94 | 195 | 7.0 | 12.0 | 0.00 | 0.00 | 0.00 | 14 | 1013.8 |
| 20260830173031 | 95 | 139 | 7.0 | 12.0 | 0.00 | 0.00 | 0.00 | 14 | 1013.8 |
| 20260830172530 | 95 | 152 | 9.0 | 13.0 | 0.00 | 0.00 | 0.00 | 14 | 1013.8 |
| 20260830172031 | 94 | 211 | 10.0 | 11.0 | 0.00 | 0.00 | 0.00 | 14 | 1013.8 |
| 20260830171533 | 94 | 165 | 7.0 | 12.0 | 0.00 | 0.00 | 0.00 | 14 | 1013.8 |
| 20260830171032 | 94 | 129 | 8.0 | 13.0 | 0.00 | 0.00 | 0.00 | 14 | 1013.8 |
| 20260830170533 | 95 | 190 | 5.0 | 15.0 | 0.00 | 0.00 | 0.00 | 14 | 1013.8 |
| 20260830170035 | 94 | 215 | 4.0 | 12.0 | 0.00 | 0.00 | 0.00 | 16 | 1013.8 |
| 20260830165528 | 94 | 136 | 5.0 | 12.0 | 0.00 | 0.00 | 0.00 | 16 | 1013.8 |
| 20260830165030 | 94 | 124 | 7.0 | 14.0 | 0.00 | 0.00 | 0.00 | 16 | 1013.8 |
| 20260830164531 | 93 | 211 | 7.0 | 14.0 | 0.00 | 0.00 | 0.00 | 17 | 1013.8 |
| 20260830164030 | 94 | 183 | 6.0 | 11.0 | 0.00 | 0.00 | 0.00 | 17 | 1013.8 |
| 20260830163531 | 93 | 214 | 8.0 | 12.0 | 0.00 | 0.00 | 0.00 | 17 | 1013.8 |
| 20260830163032 | 93 | 205 | 7.0 | 12.0 | 0.00 | 0.00 | 0.00 | 17 | 1014.8 |
| 20260830162531 | 93 | 139 | 6.0 | 10.0 | 0.00 | 0.00 | 0.00 | 17 | 1014.8 |
| 20260830162033 | 93 | 227 | 5.0 | 8.0 | 0.00 | 0.00 | 0.00 | 17 | 1014.8 |
| 20260830161530 | 93 | 195 | 5.0 | 11.0 | 0.00 | 0.00 | 0.00 | 17 | 1014.8 |
| 20260830161029 | 92 | 203 | 7.0 | 13.0 | 0.00 | 0.00 | 0.00 | 18 | 1014.8 |
| 20260830160531 | 91 | 215 | 12.0 | 14.0 | 0.00 | 0.00 | 0.00 | 18 | 1014.8 |
| 20260830160032 | 90 | 210 | 10.0 | 12.0 | 0.00 | 0.00 | 0.00 | 19 | 1013.8 |
| 20260830155526 | 91 | 191 | 10.0 | 13.0 | 0.00 | 0.00 | 0.00 | 18 | 1013.8 |
| 20260830155028 | 91 | 229 | 8.0 | 11.0 | 0.00 | 0.00 | 0.00 | 18 | 1013.8 |
| 20260830154530 | 90 | 212 | 7.0 | 12.0 | 0.00 | 0.00 | 0.00 | 19 | 1014.8 |
| 20260830154028 | 91 | 223 | 6.0 | 9.0 | 0.00 | 0.00 | 0.00 | 19 | 1014.8 |
| 20260830153530 | 90 | 201 | 5.0 | 12.0 | 0.00 | 0.00 | 0.00 | 20 | 1014.8 |
| 20260830153032 | 90 | 210 | 7.0 | 10.0 | 0.00 | 0.00 | 0.00 | 20 | 1014.8 |
| 20260830152531 | 90 | 161 | 4.0 | 12.0 | 0.00 | 0.00 | 0.00 | 20 | 1014.8 |
| 20260830152032 | 89 | 205 | 10.0 | 12.0 | 0.00 | 0.00 | 0.00 | 21 | 1014.8 |
| 20260830151534 | 89 | 200 | 7.0 | 12.0 | 0.00 | 0.00 | 0.00 | 21 | 1013.8 |
| 20260830151033 | 88 | 233 | 7.0 | 12.0 | 0.00 | 0.00 | 0.00 | 22 | 1013.8 |
| 20260830150535 | 88 | 209 | 10.0 | 12.0 | 0.00 | 0.00 | 0.00 | 22 | 1013.8 |
| 20260830150037 | 88 | 223 | 7.0 | 11.0 | 0.00 | 0.00 | 0.00 | 22 | 1013.8 |
| 20260830145531 | 88 | 221 | 6.0 | 10.0 | 0.00 | 0.00 | 0.00 | 24 | 1013.8 |
| 20260830145033 | 88 | 225 | 6.0 | 9.0 | 0.00 | 0.00 | 0.00 | 25 | 1013.8 |
| 20260830144534 | 87 | 203 | 7.0 | 9.0 | 0.00 | 0.00 | 0.00 | 25 | 1013.8 |
| 20260830144033 | 87 | 216 | 4.0 | 10.0 | 0.00 | 0.00 | 0.00 | 26 | 1013.8 |
| 20260830143535 | 87 | 176 | 5.0 | 10.0 | 0.00 | 0.00 | 0.00 | 28 | 1013.8 |
| 20260830143037 | 87 | 187 | 4.0 | 13.0 | 0.00 | 0.00 | 0.00 | 28 | 1013.8 |
| 20260830142535 | 86 | 224 | 8.0 | 12.0 | 0.00 | 0.00 | 0.00 | 28 | 1013.8 |
| 20260830142037 | 86 | 211 | 6.0 | 9.0 | 0.00 | 0.00 | 0.00 | 28 | 1013.8 |
| 20260830141539 | 85 | 159 | 6.0 | 10.0 | 0.00 | 0.00 | 0.00 | 29 | 1013.8 |
| 20260830141038 | 85 | 245 | 6.0 | 8.0 | 0.00 | 0.00 | 0.00 | 29 | 1013.8 |
| 20260830140540 | 85 | 168 | 6.0 | 10.0 | 0.00 | 0.00 | 0.00 | 31 | 1013.8 |
| 20260830140041 | 84 | 197 | 7.0 | 9.0 | 0.00 | 0.00 | 0.00 | 32 | 1013.8 |
| 20260830135540 | 83 | 219 | 5.0 | 10.0 | 0.00 | 0.00 | 0.00 | 34 | 1013.8 |
| 20260830135042 | 83 | 207 | 7.0 | 12.0 | 0.00 | 0.00 | 0.00 | 35 | 1013.8 |
| 20260830134544 | 82 | 181 | 7.0 | 11.0 | 0.00 | 0.00 | 0.00 | 36 | 1013.8 |
| 20260830134038 | 82 | 168 | 6.0 | 8.0 | 0.00 | 0.00 | 0.00 | 37 | 1013.8 |
| 20260830133539 | 82 | 185 | 4.0 | 9.0 | 0.00 | 0.00 | 0.00 | 38 | 1013.8 |
| 20260830133041 | 82 | 179 | 6.0 | 8.0 | 0.00 | 0.00 | 0.00 | 39 | 1013.8 |
| 20260830132540 | 81 | 243 | 6.0 | 10.0 | 0.00 | 0.00 | 0.00 | 40 | 1013.8 |
| 20260830132042 | 81 | 177 | 6.0 | 10.0 | 0.00 | 0.00 | 0.00 | 41 | 1013.8 |
| 20260830131544 | 81 | 201 | 6.0 | 10.0 | 0.00 | 0.00 | 0.00 | 41 | 1013.8 |
| 20260830131042 | 81 | 123 | 6.0 | 8.0 | 0.00 | 0.00 | 0.00 | 41 | 1013.8 |
| 20260830130625 | 81 | 201 | 6.0 | 9.0 | 0.00 | 0.00 | 0.00 | 42 | 1013.8 |
| 20260830130544 | 81 | 201 | 6.0 | 9.0 | 0.00 | 0.00 | 0.00 | 42 | 1013.8 |
| 20260830130046 | 80 | 222 | 5.0 | 9.0 | 0.00 | 0.00 | 0.00 | 43 | 1013.8 |
| 20260830125545 | 80 | 209 | 6.0 | 8.0 | 0.00 | 0.00 | 0.00 | 43 | 1013.8 |
| 20260830125046 | 80 | 188 | 5.0 | 9.0 | 0.00 | 0.00 | 0.00 | 43 | 1013.8 |
| 20260830124548 | 80 | 188 | 7.0 | 10.0 | 0.00 | 0.00 | 0.00 | 44 | 1013.8 |
| 20260830124047 | 79 | 186 | 7.0 | 10.0 | 0.00 | 0.00 | 0.00 | 44 | 1013.8 |
| 20260830123549 | 79 | 224 | 6.0 | 9.0 | 0.00 | 0.00 | 0.00 | 44 | 1013.8 |
| 20260830123051 | 79 | 240 | 7.0 | 10.0 | 0.00 | 0.00 | 0.00 | 44 | 1013.8 |
| 20260830122549 | 80 | 217 | 5.0 | 8.0 | 0.00 | 0.00 | 0.00 | 43 | 1013.8 |
| 20260830122051 | 80 | 215 | 5.0 | 7.0 | 0.00 | 0.00 | 0.00 | 43 | 1013.8 |
| 20260830121553 | 80 | 208 | 7.0 | 10.0 | 0.00 | 0.00 | 0.00 | 43 | 1012.8 |
| 20260830121052 | 80 | 206 | 5.0 | 9.0 | 0.00 | 0.00 | 0.00 | 43 | 1012.8 |
| 20260830120553 | 80 | 196 | 6.0 | 10.0 | 0.00 | 0.00 | 0.00 | 43 | 1012.8 |
| 20260830120055 | 80 | 207 | 8.0 | 11.0 | 0.00 | 0.00 | 0.00 | 43 | 1012.8 |
| 20260830115554 | 80 | 206 | 7.0 | 10.0 | 0.00 | 0.00 | 0.00 | 42 | 1012.8 |
| 20260830115056 | 80 | 195 | 7.0 | 10.0 | 0.00 | 0.00 | 0.00 | 42 | 1012.8 |
| 20260830114558 | 80 | 213 | 7.0 | 11.0 | 0.00 | 0.00 | 0.00 | 42 | 1012.8 |
| 20260830114056 | 80 | 201 | 8.0 | 10.0 | 0.00 | 0.00 | 0.00 | 42 | 1012.8 |
| 20260830113558 | 80 | 171 | 7.0 | 10.0 | 0.00 | 0.00 | 0.00 | 41 | 1012.8 |
| 20260830113055 | 80 | 215 | 7.0 | 10.0 | 0.00 | 0.00 | 0.00 | 40 | 1012.8 |
| 20260830112549 | 81 | 198 | 4.0 | 10.0 | 0.00 | 0.00 | 0.00 | 40 | 1012.8 |
| 20260830112051 | 81 | 184 | 4.0 | 11.0 | 0.00 | 0.00 | 0.00 | 40 | 1012.8 |
| 20260830111553 | 81 | 219 | 8.0 | 13.0 | 0.00 | 0.00 | 0.00 | 39 | 1012.8 |
| 20260830111047 | 81 | 223 | 7.0 | 10.0 | 0.00 | 0.00 | 0.00 | 38 | 1012.8 |
| 20260830110549 | 81 | 190 | 6.0 | 10.0 | 0.00 | 0.00 | 0.00 | 37 | 1012.8 |
| 20260830110051 | 82 | 195 | 7.0 | 10.0 | 0.00 | 0.00 | 0.00 | 36 | 1012.8 |
| 20260830105549 | 82 | 196 | 7.0 | 8.0 | 0.00 | 0.00 | 0.00 | 37 | 1012.8 |
| 20260830105051 | 82 | 201 | 8.0 | 12.0 | 0.00 | 0.00 | 0.00 | 36 | 1012.8 |
| 20260830104549 | 82 | 206 | 6.0 | 11.0 | 0.00 | 0.00 | 0.00 | 35 | 1012.8 |
| 20260830104047 | 82 | 170 | 6.0 | 12.0 | 0.00 | 0.00 | 0.00 | 35 | 1012.8 |
| 20260830103549 | 82 | 210 | 9.0 | 12.0 | 0.00 | 0.00 | 0.00 | 34 | 1012.8 |
| 20260830103051 | 82 | 200 | 8.0 | 13.0 | 0.00 | 0.00 | 0.00 | 34 | 1011.8 |
| 20260830102550 | 83 | 212 | 7.0 | 10.0 | 0.00 | 0.00 | 0.00 | 34 | 1011.8 |
| 20260830102051 | 83 | 191 | 8.0 | 12.0 | 0.00 | 0.00 | 0.00 | 33 | 1011.8 |
| 20260830101553 | 83 | 219 | 8.0 | 10.0 | 0.00 | 0.00 | 0.00 | 33 | 1011.8 |
| 20260830101052 | 83 | 235 | 7.0 | 11.0 | 0.00 | 0.00 | 0.00 | 33 | 1011.8 |
| 20260830100554 | 82 | 213 | 5.0 | 10.0 | 0.00 | 0.00 | 0.00 | 32 | 1011.8 |
| 20260830100056 | 82 | 212 | 7.0 | 11.0 | 0.00 | 0.00 | 0.00 | 32 | 1011.8 |
| 20260830095554 | 83 | 221 | 9.0 | 10.0 | 0.00 | 0.00 | 0.00 | 32 | 1011.8 |
| 20260830095056 | 83 | 171 | 6.0 | 10.0 | 0.00 | 0.00 | 0.00 | 32 | 1011.8 |
| 20260830094553 | 83 | 209 | 7.0 | 11.0 | 0.00 | 0.00 | 0.00 | 31 | 1011.8 |
| 20260830094052 | 83 | 207 | 7.0 | 9.0 | 0.00 | 0.00 | 0.00 | 31 | 1011.8 |
| 20260830093554 | 83 | 226 | 7.0 | 13.0 | 0.00 | 0.00 | 0.00 | 31 | 1011.8 |
| 20260830093056 | 83 | 200 | 8.0 | 12.0 | 0.00 | 0.00 | 0.00 | 30 | 1011.8 |
| 20260830092555 | 83 | 205 | 10.0 | 12.0 | 0.00 | 0.00 | 0.00 | 30 | 1011.8 |
| 20260830092056 | 83 | 203 | 8.0 | 12.0 | 0.00 | 0.00 | 0.00 | 30 | 1011.8 |
| 20260830091554 | 83 | 228 | 7.0 | 10.0 | 0.00 | 0.00 | 0.00 | 29 | 1011.8 |
| 20260830091048 | 83 | 160 | 7.0 | 10.0 | 0.00 | 0.00 | 0.00 | 29 | 1011.8 |
| 20260830090550 | 83 | 214 | 7.0 | 10.0 | 0.00 | 0.00 | 0.00 | 29 | 1011.8 |
| 20260830090052 | 83 | 200 | 8.0 | 11.0 | 0.00 | 0.00 | 0.00 | 29 | 1011.8 |
| 20260830085550 | 83 | 194 | 8.0 | 11.0 | 0.00 | 0.00 | 0.00 | 29 | 1011.8 |
| 20260830085047 | 84 | 211 | 9.0 | 12.0 | 0.00 | 0.00 | 0.00 | 29 | 1011.8 |
| 20260830084544 | 84 | 216 | 9.0 | 12.0 | 0.00 | 0.00 | 0.00 | 29 | 1011.8 |
| 20260830084043 | 84 | 220 | 7.0 | 12.0 | 0.00 | 0.00 | 0.00 | 28 | 1011.8 |
| 20260830083545 | 84 | 219 | 8.0 | 12.0 | 0.00 | 0.00 | 0.00 | 28 | 1011.8 |
| 20260830083046 | 84 | 209 | 6.0 | 10.0 | 0.00 | 0.00 | 0.00 | 28 | 1011.8 |
| 20260830082545 | 84 | 202 | 7.0 | 13.0 | 0.00 | 0.00 | 0.00 | 27 | 1011.8 |
| 20260830082047 | 84 | 207 | 6.0 | 13.0 | 0.00 | 0.00 | 0.00 | 27 | 1011.8 |
| 20260830081549 | 84 | 173 | 8.0 | 11.0 | 0.00 | 0.00 | 0.00 | 26 | 1011.8 |
| 20260830081047 | 85 | 218 | 7.0 | 11.0 | 0.00 | 0.00 | 0.00 | 25 | 1011.8 |
| 20260830080549 | 85 | 192 | 7.0 | 10.0 | 0.00 | 0.00 | 0.00 | 24 | 1011.8 |
| 20260830080051 | 85 | 188 | 7.0 | 12.0 | 0.00 | 0.00 | 0.00 | 23 | 1011.8 |
| 20260830075550 | 86 | 217 | 7.0 | 14.0 | 0.00 | 0.00 | 0.00 | 22 | 1011.8 |
| 20260830075052 | 86 | 139 | 7.0 | 13.0 | 0.00 | 0.00 | 0.00 | 22 | 1011.8 |
| 20260830074553 | 86 | 228 | 10.0 | 12.0 | 0.00 | 0.00 | 0.00 | 21 | 1011.8 |
| 20260830074052 | 87 | 193 | 9.0 | 12.0 | 0.00 | 0.00 | 0.00 | 20 | 1011.8 |
| 20260830073554 | 87 | 190 | 8.0 | 13.0 | 0.00 | 0.00 | 0.00 | 20 | 1011.8 |
| 20260830073056 | 87 | 212 | 10.0 | 14.0 | 0.00 | 0.00 | 0.00 | 20 | 1011.8 |
| 20260830072554 | 87 | 222 | 10.0 | 14.0 | 0.00 | 0.00 | 0.00 | 19 | 1011.8 |
| 20260830072056 | 88 | 203 | 10.0 | 12.0 | 0.00 | 0.00 | 0.00 | 19 | 1011.8 |
| 20260830071558 | 88 | 198 | 7.0 | 13.0 | 0.00 | 0.00 | 0.00 | 19 | 1012.8 |
| 20260830071057 | 88 | 203 | 10.0 | 12.0 | 0.00 | 0.00 | 0.00 | 19 | 1012.8 |
| 20260830070554 | 88 | 153 | 9.0 | 12.0 | 0.00 | 0.00 | 0.00 | 19 | 1012.8 |
| 20260830070056 | 88 | 198 | 6.0 | 11.0 | 0.00 | 0.00 | 0.00 | 19 | 1012.8 |
| 20260830065555 | 88 | 217 | 7.0 | 11.0 | 0.00 | 0.00 | 0.00 | 19 | 1012.8 |
| 20260830065056 | 88 | 203 | 5.0 | 12.0 | 0.00 | 0.00 | 0.00 | 19 | 1012.8 |
| 20260830064558 | 88 | 197 | 5.0 | 12.0 | 0.00 | 0.00 | 0.00 | 18 | 1012.8 |
| 20260830064057 | 88 | 201 | 7.0 | 11.0 | 0.00 | 0.00 | 0.00 | 18 | 1012.8 |